Regional Weather Roundup
Issued by NWS

Home | Current Version | Previous Version | Text Only | Print | Product List | Glossary Off
Versions: 1 2 3 4 5 6 7 8 9 10 11 12 13 14 15 16 17 18 19 20 21 22 23 24 25 26 27 28 29 30 31 32 33 34 35 36 37 38 39 40 41 42 43 44 45 46 47 48 49 50

000
ASUS43 KOAX 030110
RWRNE

WEATHER ROUNDUP FOR NEBRASKA
NATIONAL WEATHER SERVICE OMAHA NE
800 PM CDT SAT MAY 02 2015

NOTES: SATELLITE DATA IS BEING USED TO AUGMENT CLOUD COVER ABOVE
       12000 FEET.
       "FAIR" INDICATES FEW OR NO CLOUDS BELOW 12,000 FEET WITH NO
       SIGNIFICANT WEATHER AND/OR OBSTRUCTIONS TO VISIBILITY.

  * THESE STATIONS DO NOT REPORT WEATHER SUCH AS RAIN...SNOW OR FOG.

NEZ001>004-019>022-054>056-030200-
NEBRASKA PANHANDLE

CITY           SKY/WX    TMP DP  RH WIND       PRES   REMARKS
SCOTTSBLUFF    PTCLDY    75  38  26 S13       29.78R
ALLIANCE       PTCLDY    74  41  30 NW6       29.75F
CHADRON        CLEAR     74  39  28 NW6       29.71F
KIMBALL        LGT RAIN  59  47  64 S6        29.89R
SIDNEY         CLOUDY    66  43  43 W12       29.85R
$$

NEZ057>060-069>072-079>082-030200-
SOUTHWEST NEBRASKA

CITY           SKY/WX    TMP DP  RH WIND       PRES   REMARKS
NORTH PLATTE   CLOUDY    75  41  29 W8        29.73S
IMPERIAL       CLOUDY    76  38  25 W7        29.77S
LEXINGTON      CLOUDY    74  49  40 SW8       29.72F
MCCOOK         MOCLDY    82  40  22 CALM      29.73F
OGALLALA       MOCLDY    74  42  32 W8        29.76S
$$

NEZ005>010-023>029-035>040-094-030200-
NORTH CENTRAL NEBRASKA

CITY           SKY/WX    TMP DP  RH WIND       PRES   REMARKS
VALENTINE      PTCLDY    80  38  22 E7        29.68R
AINSWORTH      MOCLDY    79  46  31 S7        29.68S
BROKEN BOW     PTCLDY    82  45  27 SW9       29.70S
O`NEILL        PTCLDY    79  52  38 SE3       29.69F
ORD            MOCLDY    78  49  35 S7        29.66F
THEDFORD       CLEAR     81  34  18 W9        29.71S
$$

NEZ041-046>049-061>064-073>077-083>087-030200-
SOUTH CENTRAL NEBRASKA

CITY           SKY/WX    TMP DP  RH WIND       PRES   REMARKS
GRAND ISLAND   PTCLDY    79  48  33 S15       29.70F THUNDER
AURORA         PTCLDY    78  51  38 S14       29.70F
HASTINGS       MOCLDY    79  51  37 S8        29.72S
HEBRON         PTCLDY    77  51  40 S12       29.75F
HOLDREGE       CLOUDY    79  43  28 S14       29.72F
KEARNEY *      CLOUDY    79  46  31 SE13      29.72S
YORK           PTCLDY    79  54  41 S17G23    29.71F
$$

NEZ011>018-030>034-042>045-030200-
NORTHEAST NEBRASKA

CITY           SKY/WX    TMP DP  RH WIND       PRES   REMARKS
NORFOLK        CLEAR     75  54  47 SE7       29.68F
ALBION         MOCLDY    78  44  29 S5        29.68F
BLAIR          CLEAR     68  56  64 SE10G18   29.76F
COLUMBUS *     PTCLDY    72  57  60 E7        29.72S
FREMONT        CLEAR     71  57  61 SE12      29.74S
TEKAMAH        CLEAR     72  56  57 SE20      29.75F
WAYNE          CLEAR     75  57  53 SE15      29.72F
$$

NEZ050>053-065>068-078-088>093-030200-
SOUTHEAST NEBRASKA

CITY           SKY/WX    TMP DP  RH WIND       PRES   REMARKS
LINCOLN        CLEAR     77  54  44 S16       29.73F
OMAHA EPPLEY   PTCLDY    68  57  68 SE18      29.77F
BEATRICE       CLEAR     76  54  46 S12       29.76F
FALLS CITY     CLEAR     73  52  47 S13       29.81F
NEBRASKA CITY  CLEAR     71  51  49 S12       29.79F
PLATTSMOUTH    CLEAR     68  56  65 SE10      29.78F
$$

NEZ044-045-051>053-067-030200-
OMAHA AREA

CITY           SKY/WX    TMP DP  RH WIND       PRES   REMARKS
OMAHA EPPLEY   PTCLDY    68  57  68 SE18      29.77F
BLAIR          CLEAR     68  56  64 SE10G18   29.76F
FREMONT        CLEAR     71  57  61 SE12      29.74S
MILLARD        CLEAR     70  58  66 SE12G17   29.76F
OFFUTT AFB     CLEAR     67  58  71 SE14      29.77F
PLATTSMOUTH    CLEAR     68  56  65 SE10      29.78F
WAHOO          FAIR      72  56  58 SE16      29.72F
$$


USA.gov is the U.S. government's official web portal to all federal, state and local government web resources and services.